SCP
-1 -0 -1 -1 -1 -0 0 1 2 2 5 3 2 1 1 1 1 1 1 1 0 0 0 0 0 0 0 0 0 0 0 0 0 0 0 0 1 0 0 0 0 0 0
1 1 0 -0 0 1 1 2 2 3 4 4 2 3 2 2 1 1 1 1 0 0 0 0 0 0 0 0 0 0 0 0 0 0 0 0 0 0 0 0 0 0 0
1 1 2 2 2 2 3 4 3 4 6 4 3 4 1 2 1 1 1 0 0 0 0 0 0 0 0 0 0 0 0 0 0 0 0 0 0 0 0 0 0 0 0
1 2 2 2 3 2 4 5 4 7 5 4 4 3 2 2 1 1 1 0 0 0 0 0 0 0 0 0 0 0 0 0 0 0 0 0 0 0 0 0 0 0 0
3 2 1 2 1 2 4 4 4 5 5 6 3 3 2 2 1 1 1 0 0 0 0 0 0 0 0 0 0 0 0 0 0 0 0 0 -0 0 0 0 0 0 0
3 2 1 2 2 3 3 3 3 4 4 4 2 3 3 2 0 0 0 0 0 0 0 0 0 0 0 0 0 0 0 0 0 0 0 0 -0 0 0 0 0 0 0
3 2 2 3 4 4 3 4 3 5 5 4 5 3 2 2 0 0 0 0 0 0 0 0 0 0 0 0 0 0 0 0 0 0 0 -0 -0 0 0 -0 -0 0 0
3 3 4 4 4 3 2 3 4 4 5 5 4 2 2 1 0 0 0 0 0 0 0 0 0 0 0 0 0 0 0 0 0 0 0 -0 -0 -0 -0 -0 0 0 0
4 5 3 3 2 1 1 3 3 5 7 6 3 2 2 1 0 0 0 0 0 0 0 0 0 0 0 0 0 0 0 0 0 0 0 -0 0 -0 -0 0 0 0 0
5 4 3 1 0 1 2 3 7 9 6 4 2 2 2 2 0 0 0 0 0 0 0 0 0 0 0 0 0 0 0 0 0 0 0 0 0 -0 -0 -0 -0 -0 -0
5 5 3 2 2 2 3 6 6 5 5 7 2 3 2 0 0 0 0 0 0 0 0 0 0 0 0 0 0 0 0 0 0 0 -0 -0 -0 -0 -0 -0 -0 -0 0
6 4 3 3 4 5 5 5 4 3 4 4 3 1 1 1 0 0 0 0 0 0 0 0 0 0 0 0 0 0 0 0 0 0 0 -0 -0 -0 -0 -0 -0 -0 -0
4 6 6 9 4 4 3 3 4 3 4 3 1 1 1 1 0 0 0 0 0 0 0 0 0 0 0 0 0 0 0 0 0 0 0 -0 -0 -0 0 0 -0 -0 -0
6 4 2 3 2 2 1 1 4 5 3 1 1 1 1 1 0 0 0 0 0 0 0 0 0 0 0 0 0 0 0 0 0 0 -0 0 -0 -0 0 -0 -0 -0 -0
2 2 3 2 2 2 0 0 2 0 0 1 1 2 1 1 0 0 0 0 0 0 0 0 0 0 0 0 0 0 0 0 0 0 0 0 0 -0 0 0 -0 -0 0
2 1 1 1 3 2 0 0 0 0 0 0 0 0 0 0 0 0 0 0 0 0 0 0 0 0 0 0 0 0 0 0 0 0 0 0 0 0 0 -0 -0 0 0
0 1 1 1 1 1 1 0 0 0 0 0 0 0 0 0 0 0 0 0 0 0 0 0 0 0 0 0 0 0 -0 0 0 0 0 0 0 0 0 0 0 0 -0
1 1 1 -0 1 1 0 0 0 0 0 0 0 0 0 0 0 0 0 -0 0 0 0 0 0 0 0 0 0 0 -0 0 0 0 0 0 0 0 0 -0 0 0 0
0 -0 0 0 0 0 0 0 0 0 0 0 0 0 0 0 0 0 0 0 0 0 0 0 0 0 0 0 0 0 0 0 0 0 0 0 0 0 -0 -0 -0 -0 0
0 0 0 0 0 0 0 0 0 0 0 0 0 0 0 0 0 0 0 0 0 0 0 0 0 0 0 0 0 0 0 0 0 0 0 0 0 0 0 0 -0 0 0
0 0 0 0 0 0 0 0 0 0 0 0 0 0 0 0 0 0 0 0 0 0 0 0 0 0 0 0 0 0 0 0 0 0 0 0 0 0 0 0 0 0 -0
0 0 0 -0 0 0 -0 0 0 0 0 0 0 0 0 0 0 0 0 0 0 0 0 0 0 0 0 0 0 0 0 0 0 0 0 0 0 0 0 0 0 0 0
0 0 0 0 0 0 0 0 0 0 0 0 0 0 0 0 0 0 0 0 0 0 0 0 0 0 0 0 0 0 0 0 0 0 0 0 0 0 0 0 0 0 0
0 0 0 0 0 0 0 0 0 0 0 0 0 0 0 0 0 0 0 0 0 0 0 0 0 0 0 0 0 0 0 0 -0 0 -0 0 0 0 0 0 0 0 0
0 0 0 0 0 0 0 0 0 0 0 0 0 0 0 0 0 0 0 0 0 0 0 0 0 0 0 0 0 0 0 0 -0 0 -0 -0 0 -0 0 0 0 0 0
0 0 0 0 0 0 0 0 0 0 0 0 0 0 0 0 -0 0 0 0 0 0 0 0 0 0 0 0 0 0 0 0 -0 0 0 -0 0 0 0 0 0 0 0
Wind_Speed_500mb
83 71 70 73 74 72 71 76 71 65 60 56 51 53 51 49 38 29 21 20 20 20 20 21 27 33 37 42 43 45 51 56 68 78 82 86 92 92 102 90 75 66 64
81 78 75 71 70 65 68 68 70 67 60 51 51 50 53 45 34 21 17 17 18 19 21 24 28 33 40 41 41 50 53 57 65 81 83 92 94 109 107 90 76 70 62
68 71 71 69 69 68 67 67 58 58 54 49 52 46 50 45 29 20 18 18 19 21 22 25 30 34 43 44 50 43 49 56 66 76 88 92 109 106 102 90 81 75 61
64 63 59 62 61 58 57 53 50 59 59 37 49 42 47 39 27 17 19 18 18 20 23 26 31 37 43 51 40 50 50 66 66 72 92 101 113 108 92 91 92 73 71
63 60 55 46 43 41 46 45 45 51 50 46 44 32 32 30 19 20 18 17 17 21 24 28 31 43 44 38 48 48 65 60 67 80 92 105 109 101 96 95 96 85 67
59 54 46 41 37 40 40 41 42 41 44 52 31 31 30 19 25 31 23 16 17 20 27 31 37 41 35 49 45 50 52 54 66 74 90 98 98 95 92 88 81 79 60
51 42 39 35 44 40 37 41 35 44 45 38 33 28 21 18 28 32 26 28 23 20 26 31 36 36 39 42 52 50 46 46 47 62 88 90 86 79 73 61 52 25 27
45 41 44 43 37 34 35 32 37 38 40 34 33 27 26 24 27 26 26 26 27 24 26 32 34 32 37 47 52 50 45 44 48 52 78 95 78 64 51 41 33 24 23
46 46 43 38 34 27 26 32 32 37 40 40 29 25 24 23 27 26 23 21 18 23 27 31 31 33 43 52 50 49 47 48 50 41 68 91 86 53 44 34 39 36 36
44 41 36 27 16 21 25 31 39 47 44 29 31 27 23 25 25 21 21 17 17 24 26 26 36 39 47 54 47 45 46 52 50 51 69 87 94 56 49 43 36 38 31
35 32 29 25 21 18 24 31 37 34 33 33 27 25 22 26 21 21 21 16 15 19 21 21 27 43 48 40 38 39 47 49 47 45 64 67 85 91 60 53 51 53 43
29 28 25 17 20 29 35 30 27 21 17 27 26 26 22 26 29 22 22 20 22 25 19 19 34 37 36 31 33 39 37 37 34 41 53 60 68 79 87 75 60 65 59
35 30 24 26 24 28 27 31 29 26 20 22 25 22 28 22 22 23 20 16 18 22 19 31 31 31 31 27 33 40 34 34 34 37 43 51 54 61 65 81 75 73 70
22 17 19 21 28 30 34 35 35 23 33 28 30 27 24 22 14 13 7 6 17 18 25 20 28 28 31 32 26 26 28 30 32 34 35 42 46 51 55 57 67 81 82
20 20 22 24 25 36 33 33 27 31 34 29 26 23 24 26 27 21 19 10 11 20 16 14 15 18 20 22 23 25 29 32 31 33 39 45 46 44 49 43 47 53 73
24 20 16 17 27 26 31 35 33 34 36 31 22 22 24 26 28 20 13 9 11 14 12 13 13 16 19 20 22 25 28 34 33 31 35 37 41 45 44 47 46 51 55
22 17 24 22 28 30 31 34 32 31 26 31 32 25 21 20 24 15 5 5 16 19 11 11 12 15 17 19 20 22 27 28 32 31 32 39 40 40 47 44 45 45 45
7 10 16 20 17 23 23 22 19 24 24 29 25 20 18 22 22 12 9 19 15 14 11 9 11 13 15 17 19 21 23 27 27 29 30 30 33 40 38 40 44 39 35
16 10 14 12 10 14 15 17 18 24 26 24 29 31 32 29 21 14 11 13 5 5 7 11 12 12 13 16 19 20 22 24 26 26 27 30 30 28 35 38 35 43 37
14 22 18 10 16 18 20 23 22 22 25 22 30 34 40 31 18 11 11 7 4 3 5 9 10 11 14 16 16 20 20 22 24 25 27 29 30 33 34 31 34 31 34
9 12 21 19 17 22 21 19 16 24 35 25 29 31 33 24 19 16 9 6 4 4 5 7 6 11 14 16 16 17 17 18 21 22 24 26 27 28 28 30 31 31 29
10 12 11 13 17 15 19 16 19 29 30 28 33 36 30 21 20 19 10 7 5 6 5 8 8 11 13 15 17 16 16 17 19 22 22 24 25 24 25 27 27 29 34
11 12 12 12 10 14 14 16 20 22 26 32 34 33 31 23 18 22 13 8 7 5 7 8 10 10 13 15 16 16 15 16 16 19 21 22 22 22 22 23 25 25 28
10 10 11 10 10 11 17 13 21 27 29 34 33 28 33 35 32 21 14 9 8 8 8 9 12 13 14 13 15 18 20 20 18 14 20 21 20 22 20 20 21 25 24
12 12 11 10 4 14 12 16 23 32 34 39 37 37 34 33 26 20 14 11 11 10 10 10 9 12 12 15 17 20 22 22 20 17 15 16 19 17 19 18 19 20 23
8 8 4 9 9 18 23 23 22 28 31 41 32 33 38 34 26 18 14 13 12 11 11 9 11 12 8 16 16 19 21 23 22 18 25 18 15 16 15 16 18 17 20
Wind_Direction_500mb
229 224 229 234 237 239 236 239 244 245 237 244 254 270 266 268 277 289 277 261 256 272 270 289 297 309 314 315 315 312 308 308 307 306 305 306 307 305 315 312 305 300 295
226 226 229 231 236 235 241 239 241 243 238 242 244 261 258 258 271 266 260 249 259 260 272 286 302 307 309 318 315 313 310 312 310 309 309 309 310 316 321 315 308 306 297
219 226 223 226 231 235 241 243 237 239 235 236 237 255 260 259 267 264 252 252 254 261 275 291 301 311 312 312 312 315 314 314 311 312 312 311 318 320 322 318 312 306 297
215 218 221 224 227 235 237 236 238 233 239 233 227 250 230 254 266 245 240 249 250 269 279 296 307 314 306 319 318 318 319 316 319 317 317 319 320 324 320 315 314 307 300
209 211 216 217 219 221 227 230 237 237 236 232 235 217 227 252 247 229 234 246 260 272 289 298 308 301 332 310 320 311 319 321 324 325 321 324 324 322 322 318 309 307 302
206 205 203 201 203 212 219 220 229 235 234 229 227 225 233 235 240 243 239 241 263 284 294 301 306 322 306 307 303 311 324 334 326 329 335 326 321 324 321 315 311 294 289
192 191 188 187 197 208 212 217 220 223 227 239 216 215 221 206 231 248 251 257 269 277 287 297 307 309 315 304 316 324 332 326 328 343 348 342 332 333 330 330 325 306 279
178 179 183 192 197 199 202 206 211 220 223 209 204 203 197 206 234 245 248 257 274 286 290 299 304 314 309 315 321 326 330 332 325 349 349 356 341 346 350 343 343 330 310
172 182 184 181 175 176 188 196 202 196 190 196 192 199 202 212 237 236 246 264 284 289 294 299 307 310 303 319 320 325 329 333 336 350 342 1 351 352 3 345 359 352 341
171 172 170 164 174 191 192 198 198 194 187 185 200 197 197 214 232 229 246 265 284 287 301 317 309 308 313 317 318 325 325 333 338 352 334 5 5 11 25 28 20 2 343
159 162 161 166 172 181 174 186 189 182 187 179 187 186 207 209 227 233 252 270 275 283 303 317 307 301 311 318 319 322 326 331 342 350 337 1 9 26 25 36 41 35 16
150 145 143 156 173 171 185 189 176 182 198 176 185 188 195 217 221 240 259 275 289 298 318 310 314 323 327 335 334 325 328 339 348 345 340 357 7 16 26 32 41 53 47
144 147 171 164 197 180 177 181 181 186 196 193 212 208 198 207 236 240 258 281 296 314 309 331 340 347 352 354 334 349 346 348 356 349 351 352 355 6 15 20 33 48 50
143 142 160 173 185 182 188 185 181 199 207 209 212 205 213 204 219 262 285 345 338 348 327 336 352 353 353 351 347 343 342 358 2 356 356 355 354 8 9 13 14 31 46
129 137 158 170 181 175 184 187 197 193 205 204 204 217 216 191 201 206 188 207 285 317 346 358 344 345 350 348 348 350 350 5 5 4 2 8 6 11 9 26 19 17 32
114 121 143 161 187 200 207 212 210 211 226 214 197 188 197 200 224 236 229 277 333 7 31 3 352 356 354 352 354 354 356 6 7 7 8 13 8 8 17 16 40 28 30
154 178 185 227 230 224 202 216 211 217 218 210 220 221 227 228 227 214 195 34 33 45 16 1 360 3 358 355 358 2 359 6 8 10 10 14 22 16 12 23 25 36 29
140 211 184 198 174 193 193 197 195 197 191 208 210 217 208 195 187 164 106 54 35 18 5 4 10 10 3 1 360 7 5 4 11 13 14 16 17 17 21 19 25 30 33
97 132 166 169 177 192 194 196 208 199 176 174 175 172 171 176 167 141 114 79 67 20 359 357 15 12 11 11 8 11 9 7 11 16 18 17 18 28 22 23 22 21 33
166 178 154 189 193 196 199 209 221 190 173 169 163 172 175 174 151 131 107 100 78 66 25 26 1 17 16 18 15 13 9 6 14 15 16 15 18 15 22 25 22 25 27
181 161 153 173 191 198 188 192 200 185 167 173 174 181 175 160 157 136 154 132 106 60 35 66 19 21 22 14 18 19 8 8 11 15 18 15 16 18 17 19 24 21 34
194 177 172 190 182 202 203 196 192 182 179 175 169 187 183 160 153 147 162 135 106 94 60 58 48 37 29 27 20 22 4 8 12 12 16 15 10 21 18 20 23 24 23
195 200 197 199 202 177 210 211 198 188 181 174 172 171 173 168 150 173 152 158 126 99 79 75 63 46 45 31 25 15 14 11 14 6 19 16 12 23 21 22 22 27 25
192 195 200 193 199 189 198 195 188 174 176 177 174 173 176 182 179 170 152 159 142 123 97 83 76 72 58 46 32 22 23 21 22 35 53 14 12 21 22 25 25 27 27
203 210 221 209 208 195 199 192 193 176 169 171 172 186 183 175 160 156 173 160 149 135 119 101 79 59 41 36 28 23 23 26 29 36 73 34 11 26 23 24 33 27 34
168 196 197 192 234 226 197 178 161 156 169 177 188 171 173 159 148 178 171 165 151 143 128 111 98 92 58 20 27 25 25 28 31 46 53 35 27 22 50 30 36 38 38
Wind_Speed_850mb
83 71 70 73 74 72 71 76 71 65 60 56 51 53 51 49 38 29 21 20 20 20 20 21 27 33 37 42 43 45 51 56 68 78 82 86 92 92 102 90 75 66 64
81 78 75 71 70 65 68 68 70 67 60 51 51 50 53 45 34 21 17 17 18 19 21 24 28 33 40 41 41 50 53 57 65 81 83 92 94 109 107 90 76 70 62
68 71 71 69 69 68 67 67 58 58 54 49 52 46 50 45 29 20 18 18 19 21 22 25 30 34 43 44 50 43 49 56 66 76 88 92 109 106 102 90 81 75 61
64 63 59 62 61 58 57 53 50 59 59 37 49 42 47 39 27 17 19 18 18 20 23 26 31 37 43 51 40 50 50 66 66 72 92 101 113 108 92 91 92 73 71
63 60 55 46 43 41 46 45 45 51 50 46 44 32 32 30 19 20 18 17 17 21 24 28 31 43 44 38 48 48 65 60 67 80 92 105 109 101 96 95 96 85 67
59 54 46 41 37 40 40 41 42 41 44 52 31 31 30 19 25 31 23 16 17 20 27 31 37 41 35 49 45 50 52 54 66 74 90 98 98 95 92 88 81 79 60
51 42 39 35 44 40 37 41 35 44 45 38 33 28 21 18 28 32 26 28 23 20 26 31 36 36 39 42 52 50 46 46 47 62 88 90 86 79 73 61 52 25 27
45 41 44 43 37 34 35 32 37 38 40 34 33 27 26 24 27 26 26 26 27 24 26 32 34 32 37 47 52 50 45 44 48 52 78 95 78 64 51 41 33 24 23
46 46 43 38 34 27 26 32 32 37 40 40 29 25 24 23 27 26 23 21 18 23 27 31 31 33 43 52 50 49 47 48 50 41 68 91 86 53 44 34 39 36 36
44 41 36 27 16 21 25 31 39 47 44 29 31 27 23 25 25 21 21 17 17 24 26 26 36 39 47 54 47 45 46 52 50 51 69 87 94 56 49 43 36 38 31
35 32 29 25 21 18 24 31 37 34 33 33 27 25 22 26 21 21 21 16 15 19 21 21 27 43 48 40 38 39 47 49 47 45 64 67 85 91 60 53 51 53 43
29 28 25 17 20 29 35 30 27 21 17 27 26 26 22 26 29 22 22 20 22 25 19 19 34 37 36 31 33 39 37 37 34 41 53 60 68 79 87 75 60 65 59
35 30 24 26 24 28 27 31 29 26 20 22 25 22 28 22 22 23 20 16 18 22 19 31 31 31 31 27 33 40 34 34 34 37 43 51 54 61 65 81 75 73 70
22 17 19 21 28 30 34 35 35 23 33 28 30 27 24 22 14 13 7 6 17 18 25 20 28 28 31 32 26 26 28 30 32 34 35 42 46 51 55 57 67 81 82
20 20 22 24 25 36 33 33 27 31 34 29 26 23 24 26 27 21 19 10 11 20 16 14 15 18 20 22 23 25 29 32 31 33 39 45 46 44 49 43 47 53 73
24 20 16 17 27 26 31 35 33 34 36 31 22 22 24 26 28 20 13 9 11 14 12 13 13 16 19 20 22 25 28 34 33 31 35 37 41 45 44 47 46 51 55
22 17 24 22 28 30 31 34 32 31 26 31 32 25 21 20 24 15 5 5 16 19 11 11 12 15 17 19 20 22 27 28 32 31 32 39 40 40 47 44 45 45 45
7 10 16 20 17 23 23 22 19 24 24 29 25 20 18 22 22 12 9 19 15 14 11 9 11 13 15 17 19 21 23 27 27 29 30 30 33 40 38 40 44 39 35
16 10 14 12 10 14 15 17 18 24 26 24 29 31 32 29 21 14 11 13 5 5 7 11 12 12 13 16 19 20 22 24 26 26 27 30 30 28 35 38 35 43 37
14 22 18 10 16 18 20 23 22 22 25 22 30 34 40 31 18 11 11 7 4 3 5 9 10 11 14 16 16 20 20 22 24 25 27 29 30 33 34 31 34 31 34
9 12 21 19 17 22 21 19 16 24 35 25 29 31 33 24 19 16 9 6 4 4 5 7 6 11 14 16 16 17 17 18 21 22 24 26 27 28 28 30 31 31 29
10 12 11 13 17 15 19 16 19 29 30 28 33 36 30 21 20 19 10 7 5 6 5 8 8 11 13 15 17 16 16 17 19 22 22 24 25 24 25 27 27 29 34
11 12 12 12 10 14 14 16 20 22 26 32 34 33 31 23 18 22 13 8 7 5 7 8 10 10 13 15 16 16 15 16 16 19 21 22 22 22 22 23 25 25 28
10 10 11 10 10 11 17 13 21 27 29 34 33 28 33 35 32 21 14 9 8 8 8 9 12 13 14 13 15 18 20 20 18 14 20 21 20 22 20 20 21 25 24
12 12 11 10 4 14 12 16 23 32 34 39 37 37 34 33 26 20 14 11 11 10 10 10 9 12 12 15 17 20 22 22 20 17 15 16 19 17 19 18 19 20 23
8 8 4 9 9 18 23 23 22 28 31 41 32 33 38 34 26 18 14 13 12 11 11 9 11 12 8 16 16 19 21 23 22 18 25 18 15 16 15 16 18 17 20
Wind_Direction_850mb
229 224 229 234 237 239 236 239 244 245 237 244 254 270 266 268 277 289 277 261 256 272 270 289 297 309 314 315 315 312 308 308 307 306 305 306 307 305 315 312 305 300 295
226 226 229 231 236 235 241 239 241 243 238 242 244 261 258 258 271 266 260 249 259 260 272 286 302 307 309 318 315 313 310 312 310 309 309 309 310 316 321 315 308 306 297
219 226 223 226 231 235 241 243 237 239 235 236 237 255 260 259 267 264 252 252 254 261 275 291 301 311 312 312 312 315 314 314 311 312 312 311 318 320 322 318 312 306 297
215 218 221 224 227 235 237 236 238 233 239 233 227 250 230 254 266 245 240 249 250 269 279 296 307 314 306 319 318 318 319 316 319 317 317 319 320 324 320 315 314 307 300
209 211 216 217 219 221 227 230 237 237 236 232 235 217 227 252 247 229 234 246 260 272 289 298 308 301 332 310 320 311 319 321 324 325 321 324 324 322 322 318 309 307 302
206 205 203 201 203 212 219 220 229 235 234 229 227 225 233 235 240 243 239 241 263 284 294 301 306 322 306 307 303 311 324 334 326 329 335 326 321 324 321 315 311 294 289
192 191 188 187 197 208 212 217 220 223 227 239 216 215 221 206 231 248 251 257 269 277 287 297 307 309 315 304 316 324 332 326 328 343 348 342 332 333 330 330 325 306 279
178 179 183 192 197 199 202 206 211 220 223 209 204 203 197 206 234 245 248 257 274 286 290 299 304 314 309 315 321 326 330 332 325 349 349 356 341 346 350 343 343 330 310
172 182 184 181 175 176 188 196 202 196 190 196 192 199 202 212 237 236 246 264 284 289 294 299 307 310 303 319 320 325 329 333 336 350 342 1 351 352 3 345 359 352 341
171 172 170 164 174 191 192 198 198 194 187 185 200 197 197 214 232 229 246 265 284 287 301 317 309 308 313 317 318 325 325 333 338 352 334 5 5 11 25 28 20 2 343
159 162 161 166 172 181 174 186 189 182 187 179 187 186 207 209 227 233 252 270 275 283 303 317 307 301 311 318 319 322 326 331 342 350 337 1 9 26 25 36 41 35 16
150 145 143 156 173 171 185 189 176 182 198 176 185 188 195 217 221 240 259 275 289 298 318 310 314 323 327 335 334 325 328 339 348 345 340 357 7 16 26 32 41 53 47
144 147 171 164 197 180 177 181 181 186 196 193 212 208 198 207 236 240 258 281 296 314 309 331 340 347 352 354 334 349 346 348 356 349 351 352 355 6 15 20 33 48 50
143 142 160 173 185 182 188 185 181 199 207 209 212 205 213 204 219 262 285 345 338 348 327 336 352 353 353 351 347 343 342 358 2 356 356 355 354 8 9 13 14 31 46
129 137 158 170 181 175 184 187 197 193 205 204 204 217 216 191 201 206 188 207 285 317 346 358 344 345 350 348 348 350 350 5 5 4 2 8 6 11 9 26 19 17 32
114 121 143 161 187 200 207 212 210 211 226 214 197 188 197 200 224 236 229 277 333 7 31 3 352 356 354 352 354 354 356 6 7 7 8 13 8 8 17 16 40 28 30
154 178 185 227 230 224 202 216 211 217 218 210 220 221 227 228 227 214 195 34 33 45 16 1 360 3 358 355 358 2 359 6 8 10 10 14 22 16 12 23 25 36 29
140 211 184 198 174 193 193 197 195 197 191 208 210 217 208 195 187 164 106 54 35 18 5 4 10 10 3 1 360 7 5 4 11 13 14 16 17 17 21 19 25 30 33
97 132 166 169 177 192 194 196 208 199 176 174 175 172 171 176 167 141 114 79 67 20 359 357 15 12 11 11 8 11 9 7 11 16 18 17 18 28 22 23 22 21 33
166 178 154 189 193 196 199 209 221 190 173 169 163 172 175 174 151 131 107 100 78 66 25 26 1 17 16 18 15 13 9 6 14 15 16 15 18 15 22 25 22 25 27
181 161 153 173 191 198 188 192 200 185 167 173 174 181 175 160 157 136 154 132 106 60 35 66 19 21 22 14 18 19 8 8 11 15 18 15 16 18 17 19 24 21 34
194 177 172 190 182 202 203 196 192 182 179 175 169 187 183 160 153 147 162 135 106 94 60 58 48 37 29 27 20 22 4 8 12 12 16 15 10 21 18 20 23 24 23
195 200 197 199 202 177 210 211 198 188 181 174 172 171 173 168 150 173 152 158 126 99 79 75 63 46 45 31 25 15 14 11 14 6 19 16 12 23 21 22 22 27 25
192 195 200 193 199 189 198 195 188 174 176 177 174 173 176 182 179 170 152 159 142 123 97 83 76 72 58 46 32 22 23 21 22 35 53 14 12 21 22 25 25 27 27
203 210 221 209 208 195 199 192 193 176 169 171 172 186 183 175 160 156 173 160 149 135 119 101 79 59 41 36 28 23 23 26 29 36 73 34 11 26 23 24 33 27 34
168 196 197 192 234 226 197 178 161 156 169 177 188 171 173 159 148 178 171 165 151 143 128 111 98 92 58 20 27 25 25 28 31 46 53 35 27 22 50 30 36 38 38